This is the latest recevied weather packets stored in our database for station/object WD4DAN-13. If no packets are shown the sender has not sent any weather packets the latest 1 day(s).
| Time | Temp. | Humidity | Pressure | Rain* | Wind** | Luminosity | Snow |
|---|---|---|---|---|---|---|---|
| 1778000471 | 26.67° C | 56% | - | 0 mm | 0 m/s | - | - |
| 1778000167 | 26.67° C | 58% | - | 0 mm | 1.79 m/s, 270° | - | - |
| 1777999863 | 25.56° C | 57% | - | 0 mm | 2.24 m/s, 293° | - | - |
| 1777999559 | 25.56° C | 62% | - | 0 mm | 0.89 m/s, 9° | - | - |
| 1777999256 | 25° C | 61% | - | 0 mm | 2.24 m/s, 314° | - | - |
| 1777998954 | 25° C | 61% | - | 0 mm | 4.47 m/s, 297° | - | - |
| 1777998651 | 25.56° C | 60% | - | 0 mm | 0.89 m/s, 315° | - | - |
| 1777998344 | 25.56° C | 63% | - | 0 mm | 1.79 m/s, 318° | - | - |
| 1777998041 | 25.56° C | 62% | - | 0 mm | 1.34 m/s, 338° | - | - |
| 1777997738 | 25.56° C | 61% | - | 0 mm | 1.34 m/s, 211° | - | - |
| 1777997435 | 25.56° C | 61% | - | 0 mm | 0 m/s | - | - |
| 1777997133 | 25° C | 65% | - | 0 mm | 0 m/s | - | - |
| 1777996830 | 24.44° C | 67% | - | 0 mm | 2.24 m/s, 233° | - | - |
| 1777996526 | 25.56° C | 65% | - | 0 mm | 3.13 m/s, 286° | - | - |
| 1777996223 | 25° C | 67% | - | 0 mm | 0.89 m/s, 221° | - | - |
| 1777995919 | 25° C | 68% | - | 0 mm | 1.34 m/s, 266° | - | - |
| 1777995615 | 25° C | 68% | - | 0 mm | 1.79 m/s, 198° | - | - |
| 1777995313 | 24.44° C | 71% | - | 0 mm | 2.24 m/s, 230° | - | - |
| 1777995009 | 23.89° C | 71% | - | 0 mm | 2.68 m/s, 237° | - | - |
| 1777994706 | 23.89° C | 70% | - | 0 mm | 3.13 m/s, 262° | - | - |
| 1777994401 | 24.44° C | 70% | - | 0 mm | 3.13 m/s, 298° | - | - |
| 1777994092 | 25° C | 69% | - | 0 mm | 0 m/s | - | - |
| 1777993789 | 24.44° C | 73% | - | 0 mm | 0 m/s | - | - |
| 1777993486 | 23.89° C | 72% | - | 0 mm | 2.68 m/s, 274° | - | - |
| 1777993185 | 23.89° C | 73% | - | 0 mm | 2.24 m/s, 293° | - | - |
* Rain latest hour (hover to see other rain measurements)
** Current wind speed in m/s (hover to see current wind gust speed)